Tracking 19212 objects as of 18-Jul-2018
HD Live streaming from Space Station
objects crossing your sky now

EAGLESAT-1

Track EAGLESAT-1 now!
10-day predictions
EAGLESAT-1 is classified as:


NORAD ID: 43018
Int'l Code: 2017-073F
Perigee: 460.1 km
Apogee: 823.5 km
Inclination: 97.7 °
Period: 97.4 minutes
Semi major axis: 7012 km
RCS: Unknown
Launch date: November 18, 2017
Source: United States (US)
Launch site: AIR FORCE WESTERN TEST RANGE (AFWTR)
Uplink (MHz):
Downlink (MHz): 437.645
Beacon (MHz):
Mode: 1200bps AFSK
Call sign:
Status: Inactive

aabbcc
Your satellite tracking list
Your tracking list is empty




NASA's NSSDC Master Catalog

Two Line Element Set (TLE):
1 43018U 17073F   18198.79532548  .00000458  00000-0  41224-4 0  9998
2 43018  97.7069 128.6817 0259111 171.5278 189.0439 14.78303326 35491
Source of the keplerian elements: AFSPC